Dewpoint
-5 -5 -4 -0 3 3 2 2 1 1 5 8 8 8 8 8 8 7 6 4 3 1 -0 -0 -0 0 -0 -0 0 1 2 4 4 4 4 3 3 5 4 5 5 5 4
-3 -3 -3 -3 1 3 3 2 2 1 3 8 9 9 9 9 8 6 3 3 1 0 -0 0 0 -0 -1 0 1 1 2 4 4 4 3 4 4 5 5 5 4 4 4
-1 -1 -0 -1 0 2 3 3 2 2 4 8 9 8 6 5 4 3 2 1 0 0 0 -0 -1 -1 -1 0 2 2 3 3 2 2 2 2 2 3 3 4 4 3 3
-2 -1 0 1 2 3 3 3 4 4 4 5 5 4 4 3 2 2 1 1 0 0 -0 -1 -1 -1 -0 0 2 2 2 2 2 2 2 2 2 2 2 3 3 3 2
-2 -2 -0 2 2 3 3 4 4 4 4 4 3 3 2 2 1 1 1 1 0 -1 -2 -2 -2 -1 0 1 1 1 1 2 1 1 1 1 1 1 2 2 2 2 1
-2 -1 -1 -0 2 2 3 3 3 3 3 3 3 2 1 1 1 1 1 -0 -1 -2 -2 -4 -3 -1 0 0 0 -0 -0 0 0 1 1 0 0 0 1 1 1 0 0
-8 -4 -1 -1 -0 3 3 3 3 3 3 3 2 2 1 1 1 0 -0 -1 -2 -2 -3 -4 -2 -0 0 0 -0 -1 -1 -0 -0 -0 -0 -0 -0 -0 -0 -0 -0 -1 -6
-7 -6 -1 -0 -1 1 3 3 3 3 3 2 2 2 1 1 0 -0 -1 -2 -2 -3 -3 -1 -0 -0 -0 -0 -0 -0 -5 -11 -19 -19 -11 -6 -3 -3 -4 -4 -7 -9 -10
-5 -3 -1 1 -0 -0 3 3 3 3 3 2 2 2 1 1 0 -0 -1 -2 -2 -2 -1 -0 -0 -0 -0 -1 -1 -2 -11 -21 -23 -23 -24 -23 -21 -16 -12 -12 -13 -15 -15
-2 -1 1 1 1 1 1 3 3 3 3 2 2 2 1 1 1 -0 -1 -2 -3 -2 -1 -0 -0 -1 -1 -2 -2 -15 -22 -22 -22 -22 -22 -23 -24 -22 -23 -24 -22 -22 -24
-1 0 2 1 1 2 2 3 3 3 3 2 2 2 2 1 1 -0 -1 -2 -2 -1 -1 -1 -1 -1 -2 -2 -17 -21 -21 -22 -22 -22 -21 -21 -21 -22 -23 -24 -26 -26 -27
-2 -1 1 2 1 2 3 3 3 3 3 2 2 2 2 1 1 0 -1 -2 -1 -1 -1 -1 -1 -1 -4 -17 -23 -23 -23 -24 -23 -22 -21 -21 -22 -24 -25 -25 -25 -26 -27
-3 -3 -1 1 1 2 3 3 3 3 3 3 2 2 2 2 1 0 -1 -1 -1 -1 -1 -3 -6 -12 -21 -22 -22 -22 -23 -24 -25 -24 -23 -23 -23 -24 -25 -25 -26 -26 -26
-6 -4 -2 -1 1 2 2 3 3 3 3 3 2 2 2 2 2 1 -0 -1 -1 -1 -2 -3 -14 -21 -22 -21 -20 -21 -22 -24 -22 -21 -22 -23 -24 -24 -25 -25 -25 -25 -25
-10 -8 -4 -3 -0 1 1 2 2 2 2 2 2 2 2 1 2 1 -0 -1 -1 -1 -1 -2 -15 -21 -21 -21 -20 -19 -20 -20 -21 -21 -20 -21 -22 -23 -24 -24 -24 -23 -21
-10 -9 -8 -5 -3 -1 0 1 1 1 1 2 1 1 1 1 -0 -0 -1 -1 -1 -1 -2 -2 -7 -19 -23 -22 -21 -21 -21 -20 -20 -19 -19 -20 -22 -23 -23 -23 -22 -20 -19
-7 -8 -8 -8 -6 -3 -1 -0 0 0 0 1 1 1 1 1 0 -0 -0 -1 -1 -2 -2 -2 -2 -13 -22 -23 -22 -22 -21 -20 -19 -19 -19 -19 -20 -22 -23 -22 -19 -18 -19
-8 -7 -7 -7 -7 -4 -3 -2 -1 -0 -0 0 0 0 0 1 1 0 -0 -1 -2 -2 -2 -2 -2 -4 -17 -21 -20 -19 -19 -19 -21 -21 -21 -19 -19 -20 -20 -20 -19 -15 -13
-8 -7 -7 -6 -5 -5 -4 -3 -2 -1 -1 -0 -0 -0 -0 -0 -0 -0 -1 -1 -1 -2 -2 -2 -2 -2 -15 -17 -17 -18 -19 -19 -20 -22 -22 -21 -20 -19 -20 -20 -10 -7 -7
-7 -7 -7 -6 -6 -6 -5 -4 -3 -2 -1 -1 -1 -0 -1 -1 -1 -1 -1 -1 -1 -2 -2 -2 -2 -2 -15 -17 -16 -18 -19 -19 -20 -20 -21 -20 -19 -16 -13 -15 -11 -7 -8
-7 -7 -7 -7 -7 -7 -6 -5 -4 -4 -3 -2 -1 -1 -1 -1 -0 -0 -1 -1 -1 -2 -2 -2 -2 -2 -7 -16 -16 -17 -17 -18 -18 -19 -19 -14 -8 -5 -7 -7 -8 -6 -9
-8 -7 -7 -8 -7 -7 -6 -6 -5 -5 -4 -3 -2 -1 -1 -1 -1 -0 -0 -1 -1 -2 -2 -2 -2 -2 -4 -14 -17 -17 -17 -16 -14 -6 -7 -7 -4 -4 -6 -7 -6 -6 -7
-8 -8 -8 -8 -8 -8 -7 -7 -6 -5 -5 -4 -3 -2 -1 -1 -1 -0 -0 -0 -1 -1 -1 -2 -2 -3 -8 -7 -5 -6 -4 -6 -5 -3 -3 -3 -4 -4 -5 -6 -6 -6 -7
-8 -8 -8 -8 -8 -8 -8 -7 -7 -6 -5 -5 -4 -3 -2 -2 -1 -1 -1 -1 -1 -1 -1 -1 -2 -4 -7 -7 -6 -5 -3 -3 -3 -3 -3 -3 -4 -4 -5 -6 -6 -7 -7
-8 -8 -8 -8 -8 -8 -8 -8 -7 -6 -5 -5 -5 -4 -3 -2 -2 -1 -1 -1 -1 -1 -1 -1 -1 -2 -2 -2 -2 -2 -2 -3 -3 -3 -3 -4 -4 -5 -6 -6 -7 -7 -8
-8 -9 -8 -8 -9 -8 -8 -7 -7 -6 -6 -5 -5 -5 -4 -3 -2 -2 -2 -1 -1 -1 -1 -2 -2 -2 -2 -2 -2 -2 -3 -3 -3 -3 -4 -5 -5 -6 -6 -7 -7 -8 -8
Wind_Speed
7 10 14 16 15 15 14 13 13 14 16 17 19 21 22 23 23 20 19 18 19 18 18 18 18 19 18 18 18 18 18 17 18 20 18 18 18 19 18 19 19 18 20
9 8 10 12 14 15 15 15 13 13 14 17 20 23 22 21 21 19 19 20 19 18 19 18 18 19 17 17 17 17 17 16 18 18 19 17 14 14 18 20 22 19 16
12 11 9 9 11 13 14 15 14 13 13 14 15 17 18 18 18 20 20 19 18 18 18 18 19 18 18 17 17 17 16 17 18 20 20 20 20 19 19 19 18 17 17
13 13 12 11 10 10 10 11 12 13 13 15 16 18 19 18 18 18 17 18 17 18 19 19 19 19 19 18 18 17 16 18 20 21 22 22 21 21 21 21 21 19 18
14 14 13 13 13 11 11 11 12 13 15 16 17 18 17 17 17 17 17 17 18 19 19 20 21 21 17 16 16 17 18 19 20 20 20 20 20 19 19 19 20 18 19
17 16 15 15 15 15 15 15 14 15 16 18 18 19 18 17 17 17 17 17 17 17 17 17 16 14 13 13 14 15 17 20 21 21 20 19 17 17 18 18 17 18 18
19 19 18 17 17 18 18 18 18 18 17 18 17 17 16 16 16 16 16 16 15 16 16 16 12 11 11 12 13 14 14 13 15 16 16 15 15 15 16 17 17 16 15
18 19 19 19 18 20 21 20 20 20 20 20 19 18 18 17 16 16 15 14 14 15 14 13 9 10 11 11 11 11 10 9 8 9 12 14 15 14 13 13 13 12 11
18 17 18 19 18 19 23 22 22 21 21 20 19 18 18 17 16 15 14 13 14 13 12 11 10 11 12 12 11 11 10 10 9 8 8 8 9 10 11 10 10 10 12
19 19 18 19 18 19 22 24 23 22 21 21 21 20 19 18 17 17 16 14 13 13 13 13 13 13 13 13 11 10 10 10 9 9 7 7 7 8 8 9 9 9 10
19 20 20 20 18 17 20 26 24 22 22 23 23 22 21 20 19 18 18 15 13 13 12 13 14 14 14 12 11 11 10 10 10 9 9 8 7 7 8 8 8 8 8
20 18 19 19 19 18 18 22 27 25 25 25 24 25 24 22 21 21 19 16 13 13 12 13 15 16 15 14 11 12 11 10 11 11 10 9 8 9 8 7 7 7 8
20 17 17 18 17 16 16 18 25 28 28 27 26 25 25 23 22 22 21 19 14 13 14 14 14 15 15 14 13 12 11 9 11 11 10 10 10 10 8 8 7 8 6
22 20 18 17 18 16 15 16 20 25 28 29 27 26 26 24 23 24 23 20 18 16 16 16 17 16 16 14 15 13 12 10 10 10 10 10 9 8 8 8 9 8 7
24 23 21 20 17 16 17 17 20 21 24 26 26 25 24 25 24 21 21 20 20 17 16 19 21 21 20 18 17 16 14 13 12 11 11 10 11 11 10 10 9 7 8
26 24 24 23 21 18 17 19 20 21 24 25 24 23 23 20 17 19 20 21 21 21 24 24 23 21 21 19 18 17 16 14 13 13 13 12 12 11 11 11 10 9 10
26 26 26 25 24 21 19 19 22 20 21 22 24 23 21 17 16 18 18 19 20 23 28 26 24 23 22 20 19 18 17 14 14 15 14 14 14 14 14 12 12 12 11
29 25 25 26 25 22 21 19 20 22 22 23 24 25 22 19 18 18 18 18 22 25 28 27 27 25 24 22 20 19 18 17 18 17 16 15 15 16 15 14 14 13 14
26 28 25 23 22 21 21 20 20 20 23 25 25 24 24 21 20 19 19 22 24 26 27 27 25 24 23 21 20 20 19 19 19 19 18 17 17 17 17 16 15 17 18
27 24 20 21 25 22 21 21 22 20 20 21 23 25 23 21 23 23 23 25 24 24 26 25 23 21 21 20 20 20 20 21 21 20 19 18 18 19 20 19 19 19 19
26 24 22 21 25 21 22 21 21 22 21 20 20 20 20 22 23 23 24 26 24 23 23 24 23 22 20 19 20 21 20 20 21 20 21 22 22 23 22 22 21 20 19
24 23 23 26 24 21 22 21 20 20 21 21 18 18 15 17 20 22 22 23 22 19 19 19 20 21 20 19 20 21 21 21 20 26 26 27 26 24 23 23 23 22 21
22 21 24 25 24 21 19 19 19 19 20 21 20 18 17 16 17 20 21 21 20 18 18 18 19 21 23 23 24 28 30 27 28 24 23 24 24 24 25 25 23 22 21
20 21 23 23 18 17 19 22 21 18 17 18 19 19 19 18 18 18 19 20 20 19 19 20 21 21 21 23 26 27 27 25 24 23 23 24 24 24 24 24 22 20 18
21 21 19 19 19 19 25 24 20 19 17 17 18 18 19 18 19 18 19 19 20 20 20 21 22 23 23 23 23 22 22 23 23 22 22 22 21 20 20 19 19 18 18
21 21 20 22 23 23 22 19 17 16 16 16 16 17 17 18 18 17 18 19 19 19 20 22 22 22 22 22 21 20 19 19 20 20 20 19 19 18 18 18 18 18 17
Wind_Direction
300 283 274 267 266 264 263 262 258 250 242 235 229 226 226 229 228 230 236 245 258 266 270 271 274 277 277 277 273 270 266 260 262 271 274 281 273 268 265 270 265 268 268
329 305 284 269 259 257 258 259 258 254 246 237 230 230 230 228 232 236 245 255 262 264 266 271 273 274 276 273 271 268 267 257 261 266 271 270 269 268 271 255 263 260 256
316 316 307 279 260 249 247 247 247 245 237 230 224 220 218 222 231 241 249 257 258 265 271 274 274 275 273 268 262 260 258 254 260 264 269 267 269 270 269 270 259 254 266
319 305 302 296 271 252 243 236 231 224 223 217 217 219 225 232 239 243 246 256 267 272 275 278 277 272 266 265 262 260 255 251 254 259 264 266 266 266 263 259 257 262 274
329 315 298 287 284 274 261 250 240 233 232 232 231 231 232 234 237 246 255 263 270 273 275 275 267 262 256 252 256 256 256 255 254 256 258 260 263 260 257 258 257 262 270
322 319 307 288 271 265 260 257 253 248 239 235 233 232 231 234 242 250 258 265 271 277 279 283 273 263 262 261 259 260 257 250 250 254 258 261 261 255 252 253 256 263 270
307 305 307 294 274 258 254 254 254 251 247 242 238 236 235 239 246 255 261 265 270 277 285 293 275 256 247 255 258 260 259 252 248 249 251 251 250 247 246 248 253 254 249
304 299 296 297 275 254 247 246 246 241 236 233 232 233 238 241 246 254 262 270 276 277 281 292 259 241 245 253 256 250 251 253 256 253 248 244 243 246 243 243 245 244 244
306 301 294 292 284 264 245 245 246 244 241 236 238 239 243 242 248 256 266 269 273 268 267 271 248 239 243 244 240 239 244 249 252 251 245 241 239 238 238 240 241 240 246
319 314 305 298 293 271 253 240 244 244 243 240 240 242 242 243 249 256 262 263 262 259 264 259 238 234 236 239 228 233 238 242 245 249 249 245 240 238 241 243 237 240 244
317 317 311 303 295 282 260 236 237 240 240 239 242 243 244 245 247 250 257 259 256 254 260 254 235 226 232 223 219 228 232 236 239 237 238 237 233 235 229 226 226 226 230
313 314 321 307 297 286 269 246 230 234 236 238 240 241 243 245 247 245 250 252 249 258 258 246 233 223 216 221 221 233 239 237 236 232 228 227 227 227 225 225 222 218 221
318 306 308 315 303 285 277 256 237 233 235 238 240 244 247 248 246 242 239 243 240 252 253 236 223 217 217 222 224 231 238 235 230 225 225 227 227 224 220 218 221 220 220
317 313 303 302 306 290 274 264 247 239 238 239 242 246 250 251 248 243 238 232 241 241 245 233 225 223 225 225 226 227 234 230 226 224 225 223 226 229 229 224 220 218 225
315 315 309 296 292 296 278 265 256 251 247 247 250 253 255 254 254 252 240 232 236 245 239 235 225 224 223 223 223 226 228 229 230 229 230 230 229 226 226 222 222 233 248
321 316 310 305 295 285 289 274 263 252 245 244 242 241 250 256 243 227 222 226 230 233 235 235 231 230 229 228 225 226 228 230 231 231 233 234 232 234 235 234 239 247 257
316 313 309 303 299 291 287 282 272 259 255 246 241 239 244 245 235 223 223 227 230 230 235 238 234 233 231 228 227 228 230 232 233 236 237 236 234 231 237 248 252 256 262
305 306 304 303 297 293 278 282 278 261 255 250 242 242 242 241 234 231 228 225 227 228 236 238 239 226 232 230 230 231 232 231 235 237 240 240 239 240 246 247 253 264 272
297 301 304 301 297 290 286 275 278 272 261 256 248 240 237 237 234 227 223 230 236 234 238 241 243 231 231 232 233 233 233 234 237 239 240 241 241 245 249 249 254 273 273
301 299 299 289 295 289 284 282 271 273 271 263 255 245 234 233 227 225 229 233 239 242 240 242 245 236 229 228 231 231 232 235 236 240 243 244 244 251 255 252 259 273 267
300 299 293 290 294 286 286 282 277 270 268 268 261 253 238 234 234 235 237 241 244 248 244 241 241 232 229 230 229 231 232 238 241 244 245 246 252 252 252 254 261 265 258
296 294 288 292 299 290 284 285 283 271 265 262 263 255 243 236 232 235 239 242 246 253 247 244 239 219 233 232 232 234 239 242 249 255 249 251 254 251 254 256 262 261 257
298 292 289 292 295 292 285 285 283 279 268 261 255 256 245 240 240 240 241 242 243 246 242 234 223 224 232 231 234 239 245 238 256 256 253 252 254 256 254 254 258 259 256
299 295 293 294 292 293 291 286 285 281 272 263 255 248 247 242 241 243 243 243 243 242 236 233 231 231 230 233 238 243 250 253 250 252 252 253 256 257 255 251 250 251 252
300 296 295 293 294 284 288 292 280 280 274 264 254 251 240 240 240 239 243 242 241 241 237 234 234 236 237 239 242 244 246 248 249 248 250 256 255 252 247 245 241 243 248
294 291 288 288 288 287 288 284 279 278 274 269 255 247 239 236 235 236 238 239 239 240 239 236 236 238 239 241 243 244 243 244 247 252 255 252 247 242 236 232 235 241 240
Height
1478 1478 1479 1478 1478 1480 1482 1483 1484 1485 1486 1489 1492 1496 1497 1499 1503 1505 1507 1509 1511 1509 1510 1510 1509 1510 1510 1509 1509 1511 1510 1509 1510 1510 1510 1509 1510 1510 1510 1510 1510 1510 1511
1476 1476 1474 1473 1474 1476 1477 1479 1480 1481 1482 1484 1486 1491 1493 1495 1499 1501 1504 1505 1504 1503 1503 1503 1502 1504 1502 1503 1504 1504 1503 1505 1505 1505 1505 1505 1506 1506 1506 1505 1505 1505 1506
1474 1474 1473 1473 1474 1474 1473 1476 1475 1475 1477 1480 1482 1485 1487 1491 1493 1496 1499 1499 1498 1497 1497 1496 1497 1495 1496 1496 1497 1498 1499 1500 1501 1501 1500 1501 1501 1501 1501 1501 1501 1501 1501
1471 1471 1470 1470 1471 1470 1468 1471 1471 1472 1475 1477 1479 1481 1484 1485 1488 1491 1491 1493 1490 1490 1490 1490 1489 1490 1489 1490 1492 1493 1493 1494 1495 1495 1495 1496 1496 1497 1496 1496 1497 1497 1498
1469 1466 1465 1466 1464 1463 1465 1466 1468 1468 1471 1472 1474 1476 1477 1478 1481 1484 1485 1485 1485 1485 1485 1484 1484 1483 1483 1484 1486 1486 1488 1489 1489 1489 1490 1490 1490 1491 1492 1493 1493 1494 1494
1466 1464 1462 1461 1461 1461 1461 1463 1464 1465 1465 1469 1469 1472 1471 1472 1475 1477 1479 1478 1479 1480 1480 1478 1476 1476 1477 1479 1481 1481 1482 1483 1483 1484 1484 1484 1485 1486 1488 1488 1489 1490 1491
1464 1462 1459 1456 1456 1456 1457 1460 1459 1460 1460 1463 1465 1467 1467 1470 1471 1472 1472 1474 1474 1475 1473 1471 1470 1471 1473 1475 1476 1476 1476 1476 1477 1478 1478 1480 1481 1482 1483 1484 1484 1485 1487
1459 1459 1457 1455 1453 1452 1454 1456 1456 1457 1459 1461 1463 1463 1466 1465 1466 1466 1467 1468 1468 1468 1467 1466 1467 1468 1469 1470 1471 1472 1473 1474 1473 1474 1475 1476 1476 1478 1479 1480 1480 1481 1483
1455 1453 1451 1449 1447 1445 1446 1447 1449 1451 1453 1453 1457 1458 1460 1460 1460 1460 1461 1462 1464 1465 1464 1463 1463 1464 1465 1465 1467 1468 1470 1471 1471 1472 1472 1473 1473 1474 1475 1476 1477 1478 1480
1446 1444 1443 1441 1438 1438 1438 1440 1444 1446 1448 1448 1450 1452 1454 1455 1454 1455 1457 1458 1459 1459 1460 1460 1459 1460 1461 1461 1463 1464 1466 1468 1469 1470 1470 1470 1471 1472 1472 1474 1474 1475 1477
1442 1440 1437 1434 1432 1432 1432 1433 1437 1439 1441 1442 1444 1446 1448 1449 1450 1451 1452 1452 1453 1453 1453 1454 1456 1456 1457 1457 1460 1461 1463 1464 1466 1467 1467 1468 1468 1469 1470 1471 1472 1473 1475
1437 1435 1433 1430 1428 1426 1425 1427 1429 1431 1434 1436 1437 1439 1442 1443 1444 1445 1446 1447 1448 1449 1449 1449 1450 1451 1453 1454 1456 1458 1459 1461 1462 1463 1464 1465 1466 1467 1468 1469 1470 1471 1473
1433 1431 1429 1427 1425 1422 1421 1421 1422 1424 1426 1428 1430 1432 1435 1436 1438 1439 1440 1441 1443 1444 1445 1445 1446 1448 1450 1451 1452 1454 1456 1457 1459 1460 1461 1462 1464 1465 1466 1467 1468 1470 1471
1427 1425 1424 1422 1420 1419 1418 1417 1416 1417 1419 1420 1423 1425 1427 1429 1430 1431 1433 1435 1436 1439 1440 1441 1442 1444 1446 1447 1449 1450 1452 1454 1455 1457 1458 1459 1461 1462 1464 1465 1467 1467 1469
1422 1420 1418 1416 1415 1413 1412 1411 1411 1411 1413 1414 1417 1419 1420 1420 1421 1423 1426 1428 1430 1433 1435 1435 1436 1438 1440 1442 1444 1446 1448 1450 1452 1453 1455 1456 1457 1459 1461 1462 1464 1465 1466
1417 1414 1413 1410 1408 1407 1406 1405 1404 1405 1405 1407 1409 1411 1412 1413 1414 1416 1418 1422 1424 1427 1426 1428 1430 1433 1435 1437 1439 1442 1444 1446 1448 1449 1451 1453 1454 1456 1458 1459 1460 1462 1462
1412 1409 1406 1404 1401 1400 1399 1398 1397 1396 1397 1399 1401 1403 1405 1407 1408 1410 1412 1415 1418 1420 1419 1422 1424 1428 1430 1432 1435 1437 1439 1442 1443 1445 1447 1449 1451 1452 1453 1455 1457 1457 1458
1406 1404 1401 1398 1395 1393 1393 1391 1390 1390 1390 1391 1393 1396 1398 1400 1402 1403 1405 1409 1411 1411 1412 1415 1417 1420 1424 1427 1429 1432 1435 1437 1438 1441 1442 1444 1446 1447 1449 1451 1452 1453 1453
1399 1396 1394 1391 1389 1388 1386 1385 1384 1383 1383 1383 1384 1387 1389 1392 1394 1396 1399 1400 1402 1403 1405 1408 1411 1414 1418 1421 1424 1427 1430 1432 1434 1436 1437 1439 1440 1442 1444 1446 1447 1447 1447
1391 1389 1388 1385 1382 1381 1380 1378 1377 1376 1375 1376 1376 1378 1380 1385 1386 1387 1390 1392 1394 1397 1399 1402 1404 1408 1411 1415 1418 1421 1423 1425 1428 1430 1432 1434 1435 1436 1438 1440 1441 1441 1441
1384 1382 1380 1379 1376 1373 1372 1371 1369 1369 1368 1369 1369 1370 1372 1375 1378 1380 1383 1385 1387 1390 1392 1395 1398 1401 1405 1409 1412 1415 1417 1420 1422 1424 1426 1428 1429 1430 1432 1433 1434 1434 1435
1377 1375 1373 1371 1369 1366 1365 1364 1363 1362 1361 1361 1363 1363 1365 1368 1370 1373 1375 1378 1381 1383 1385 1388 1391 1395 1399 1402 1406 1408 1411 1413 1416 1417 1419 1420 1421 1423 1424 1425 1426 1427 1428
1370 1368 1366 1364 1362 1360 1359 1358 1356 1355 1354 1354 1356 1357 1359 1361 1363 1366 1368 1371 1374 1376 1379 1382 1385 1389 1393 1396 1399 1402 1404 1406 1408 1410 1411 1412 1413 1415 1416 1417 1419 1420 1421
1364 1361 1359 1357 1356 1354 1353 1351 1350 1349 1348 1348 1348 1350 1352 1354 1357 1359 1362 1364 1367 1370 1372 1375 1379 1382 1386 1389 1392 1394 1396 1398 1400 1401 1402 1404 1405 1406 1408 1409 1411 1413 1414
1358 1355 1353 1351 1349 1348 1346 1344 1343 1342 1341 1341 1342 1343 1345 1348 1350 1352 1355 1357 1360 1363 1366 1369 1372 1375 1378 1381 1383 1386 1388 1390 1391 1393 1394 1396 1397 1398 1400 1402 1404 1406 1408
1351 1348 1346 1344 1343 1341 1339 1337 1336 1336 1335 1335 1335 1336 1338 1341 1343 1346 1348 1351 1353 1356 1359 1362 1365 1368 1371 1373 1376 1378 1380 1382 1384 1386 1387 1388 1390 1391 1393 1396 1398 1400 1402